Location: *
(35.2348°S, 91.3916°E)
Time: 18:27:35
(UTC+00:00)

Cosmos 2082 Rocket - Pass Details

Date: 23 October 2019
Orbit: 832 x 854 km, 71.0° (Epoch: 16 November)

Event Time Altitude Azimuth Distance (km) Brightness Sun altitude
Exits shadow 14:34:56 33° 334° (NNW) 1,368 3.1 -26.2°
Maximum altitude 14:37:33 83° 250° (WSW) 853 2.1 -26.7°
Drops below altitude 10° 14:43:14 10° 160° (SSE) 2,469 4.8 -27.5°
Sets 14:45:42 0° 159° (SSE) 3,409 5.6 -27.9°
